Tracking 18840 objects as of 17-November-2017
HD Live streaming from Space Station
objects crossing your sky now

FENGYUN 1C DEB

Track FENGYUN 1C DEB now!
10-day predictions


NORAD ID: 30389
Int'l Code: 1999-025ADC
Perigee: 817.8 km
Apogee: 843.1 km
Inclination: 98.9 °
Period: 101.4 minutes
Semi major axis: 7201 km
RCS: 0.044 m2 (small)
Launch date: May 10, 1999
Source: People's Republic of China (PRC)
Launch site: Taiyaun Space Center, China (TSC)

Note: This is SATELLITE DEBRIS
aabbcc
Your satellite tracking list
Your tracking list is empty




NASA's NSSDC Master Catalog

Two Line Element Set (TLE):
1 30389U 99025ADC 17321.51582760  .00001219  00000-0  58656-3 0  9992
2 30389  98.9391 305.3992 0017542 101.2132  13.2100 14.20609595557942
Source of the keplerian elements: AFSPC